[[{"header":{"parameterUnit":"m.s-1","parameterCategory":1,"la1":30.2991,"la2":30.254,"lo1":-89.0895,"lo2":-89.0444,"dy":0.0017,"dx":0.0017,"nx":28,"ny":28,"refTime":"2025-12-15T03:00:00:Z","depth":0,"parameterNumber":2,"parameterNumberName":"U-component_of_WINDS"},"data":[0,0,0,0,0,0,0,0,0,0,0,0,0,0,0,0,0,0,0,0,0,0,0,0,0,0,0,0,0,0,0,0,0,0,0,0,0,0,0,0,0,0,0,0,0,0,0,0,0,0,0,0,0,0,0,0,0,0,-1.6694,-1.6694,0,-1.6695,-1.6695,-1.6695,-1.6643,-1.6642,-1.664,-1.6639,-1.6643,-1.6644,-1.6646,0,0,0,0,0,0,0,0,0,0,0,0,0,-1.6649,-1.665,-1.6694,-1.6694,-1.6694,-1.6695,-1.6695,-1.6695,-1.6643,-1.6642,-1.664,-1.6638,-1.6642,-1.6644,-1.6646,0,0,0,0,0,0,0,0,0,0,0,0,0,-1.6661,-1.665,-1.6694,-1.6668,-1.6666,-1.6695,-1.6695,-1.6695,-1.6644,-1.6642,-1.664,-1.6638,-1.6642,-1.6644,-1.6646,-1.6701,0,0,-1.6652,-1.6653,0,0,0,0,0,0,0,0,-1.6661,-1.6663,-1.6672,-1.667,-1.6667,-1.6667,-1.6681,-1.6697,-1.6644,-1.6652,-1.6639,-1.6637,-1.6653,-1.6654,-1.6659,-1.6701,-1.6701,-1.6652,-1.6654,-1.6655,-1.6655,0,0,0,0,0,0,0,-1.666,-1.6663,-1.6695,-1.6672,-1.6669,-1.6657,-1.6657,-1.6684,-1.6664,-1.6651,-1.6648,-1.6648,-1.6651,-1.6657,-1.6658,-1.6701,-1.6652,-1.6654,-1.6656,-1.6656,-1.679,-1.6792,0,0,0,0,0,0,-1.6662,-1.6662,-1.6695,-1.6695,-1.6659,-1.666,-1.6659,-1.6669,-1.6664,-1.6661,-1.665,-1.6646,-1.6654,-1.6656,-1.6658,-1.6723,-1.6655,-1.6657,-1.6658,-1.6788,-1.6791,-1.6793,0,0,0,0,0,0,-1.6661,-1.6665,-1.6694,-1.6677,-1.668,-1.6663,-1.6675,-1.667,-1.6676,-1.6663,-1.6659,-1.6659,-1.6653,-1.6655,-1.6691,-1.6723,-1.6658,-1.6659,-1.6785,-1.6789,-1.6792,-1.6854,0,0,0,0,0,0,-1.666,-1.6665,-1.6686,-1.6678,-1.6681,-1.6726,-1.6676,-1.6672,-1.668,-1.6674,-1.6671,-1.6668,-1.6651,-1.6688,-1.6693,-1.6725,-1.6661,-1.6782,-1.6787,-1.6791,-1.6849,-1.6859,-1.6867,0,0,0,0,0,-1.6659,-1.6703,-1.6687,-1.6691,-1.6706,-1.6728,-1.673,-1.6709,-1.6682,-1.6703,-1.6695,-1.6668,-1.6718,-1.6692,-1.6697,-1.673,-1.678,-1.6786,-1.6791,-1.6845,-1.6857,-1.6867,0,0,0,0,0,0,-1.6715,-1.6702,-1.6684,-1.6726,-1.6729,-1.6719,-1.6745,-1.6723,-1.6733,-1.6728,-1.6702,-1.6702,-1.6742,-1.6739,-1.671,-1.6784,-1.6745,-1.6751,-1.6784,-1.6795,-1.6805,-1.6805,-1.6663,0,0,0,0,0,-1.6733,-1.6751,-1.6738,-1.6778,-1.678,-1.6762,-1.6771,-1.6755,-1.6757,-1.6758,-1.6752,-1.6755,-1.6772,-1.6783,-1.6798,-1.6848,-1.6847,-1.6873,-1.6882,-1.689,-1.6896,-1.6924,-1.6936,-1.681,-1.681,-1.681,0,0,-1.6769,-1.6764,-1.6777,-1.6789,-1.6789,-1.681,-1.6763,-1.6787,-1.6803,-1.6761,-1.6795,-1.6791,-1.6793,-1.6836,-1.6855,-1.6835,-1.6931,-1.6896,-1.6903,-1.6905,-1.6931,-1.6942,-1.6953,-1.6814,-1.6813,-1.6813,0,0,-1.6846,-1.6843,-1.6876,-1.6877,-1.6877,-1.6865,-1.6874,-1.6867,-1.6863,-1.6896,-1.6866,-1.6884,-1.6913,-1.6916,-1.6921,-1.7,-1.6977,-1.7006,-1.7055,-1.7082,-1.7092,-1.7101,-1.7131,-1.7141,-1.7012,-1.7012,-1.7012,0,-1.6891,-1.6921,-1.6896,-1.6922,-1.6929,-1.6892,-1.6926,-1.6928,-1.6933,-1.6939,-1.6917,-1.6953,-1.6951,-1.6996,-1.7015,-1.702,-1.703,-1.7007,-1.7093,-1.7101,-1.7109,-1.7137,-1.7148,-1.7016,-1.7015,-1.7015,-1.7014,0,-1.6977,-1.6998,-1.7025,-1.7031,-1.704,-1.707,-1.7051,-1.7064,-1.7047,-1.7038,-1.7072,-1.707,-1.7083,-1.7092,-1.7076,-1.7135,-1.7123,-1.7097,-1.7058,-1.7125,-1.7151,-1.7161,-1.7021,-1.7019,-1.7018,-1.7017,0,0,-1.709,-1.7082,-1.7093,-1.7095,-1.7093,-1.7109,-1.7138,-1.7151,-1.7163,-1.7168,-1.7193,-1.7218,-1.7194,-1.72,-1.7184,-1.7208,-1.7273,-1.7179,-1.7179,-1.7198,-1.7339,-1.736,-1.7372,-1.7257,-1.7258,-1.726,-1.7339,0,-1.7166,-1.7214,-1.7193,-1.7244,-1.7263,-1.7229,-1.7254,-1.7256,-1.7248,-1.7265,-1.7256,-1.7275,-1.7242,-1.7245,-1.7267,-1.726,-1.7301,-1.7254,-1.7281,-1.7282,-1.7282,-1.7386,-1.7407,-1.7482,-1.7349,-1.7351,-1.7352,0,-1.7261,-1.727,-1.7322,-1.7317,-1.7325,-1.7348,-1.7359,-1.7374,-1.7376,-1.7369,-1.7377,-1.7355,-1.7384,-1.7344,-1.7384,-1.7353,-1.7363,-1.7361,-1.7363,-1.7366,-1.7322,-1.7393,-1.7506,-1.7518,-1.7368,-1.7366,-1.7365,0,-1.734,-1.7365,-1.74,-1.7403,-1.7398,-1.7415,-1.7414,-1.7414,-1.7423,-1.7433,-1.7439,-1.7452,-1.7459,-1.7471,-1.7454,-1.7426,-1.7497,-1.7455,-1.7493,-1.7494,-1.7511,-1.7511,-1.7629,-1.7515,-1.7515,-1.7515,-1.7514,0,-1.7427,-1.7461,-1.7435,-1.7457,-1.7494,-1.747,-1.7508,-1.7503,-1.7504,-1.7525,-1.7495,-1.7515,-1.7491,-1.751,-1.7497,-1.7533,-1.7536,-1.7533,-1.7529,-1.7536,-1.7537,-1.7543,-1.7538,-1.7518,-1.7517,-1.7516,-1.7516,0,-1.7522,-1.7506,-1.7542,-1.7534,-1.7533,-1.7561,-1.7555,-1.7576,-1.7566,-1.7593,-1.7598,-1.7583,-1.7603,-1.7587,-1.7607,-1.7598,-1.7647,-1.7635,-1.7646,-1.7644,-1.7683,-1.768,-1.7811,-1.7827,-1.7702,-1.7703,-1.7704,0,-1.758,-1.7605,-1.76,-1.7612,-1.7613,-1.7632,-1.7641,-1.7619,-1.763,-1.7635,-1.7655,-1.7673,-1.7686,-1.772,-1.7712,-1.7727,-1.7717,-1.7761,-1.7719,-1.7726,-1.7719,-1.7719,-1.7722,-1.777,-1.7772,-1.7773,-1.7774,0,-1.7684,-1.7675,-1.769,-1.7702,-1.7714,-1.7723,-1.7729,-1.774,-1.7717,-1.7732,-1.7752,-1.7762,-1.7783,-1.7801,-1.7814,-1.7814,-1.7791,-1.7787,-1.7797,-1.7805,-1.7811,-1.781,-1.7671,-1.7785,-1.7784,-1.7783,-1.7782,-1.7782,-1.7763,-1.7785,-1.7785,-1.7802,-1.7805,-1.7811,-1.7831,-1.7823,-1.7839,-1.7854,-1.784,-1.7865,-1.7867,-1.7882,-1.7884,-1.7904,-1.7886,-1.79,-1.7904,-1.7908,-1.7915,-1.7807,-1.7906,-1.7906,-1.7906,-1.7906,-1.7905,0,-1.7868,-1.7866,-1.7882,-1.7892,-1.7906,-1.7882,-1.7888,-1.7902,-1.7924,-1.7928,-1.7941,-1.7965,-1.7984,-1.7977,-1.7993,-1.801,-1.8,-1.8016,-1.8015,-1.8015,-1.7929,-1.792,-1.8023,-1.8023,-1.8023,-1.8023,-1.8023,-1.8023,-1.7924,-1.7959,-1.795,-1.7987,-1.7985,-1.8009,-1.8014,-1.8021,-1.8024,-1.8052,-1.8067,-1.8062,-1.8062,-1.8078,-1.8094,-1.8091,-1.81,-1.8119,-1.8113,-1.8033,-1.8021,-1.801,-1.8001,-1.8121,-1.8121,-1.8198,-1.8199,-1.8199]},{"header":{"parameterUnit":"m.s-1","parameterCategory":1,"la1":30.2991,"la2":30.254,"lo1":-89.0895,"lo2":-89.0444,"dy":0.0017,"dx":0.0017,"nx":28,"ny":28,"refTime":"2025-12-15T03:00:00:Z","depth":0,"parameterNumber":3,"parameterNumberName":"V-component_of_WINDS"},"data":[0,0,0,0,0,0,0,0,0,0,0,0,0,0,0,0,0,0,0,0,0,0,0,0,0,0,0,0,0,0,0,0,0,0,0,0,0,0,0,0,0,0,0,0,0,0,0,0,0,0,0,0,0,0,0,0,0,0,-1.9099,-1.9099,0,-1.9106,-1.9106,-1.9106,-1.907,-1.9069,-1.9068,-1.9067,-1.9073,-1.9074,-1.9075,0,0,0,0,0,0,0,0,0,0,0,0,0,-1.9054,-1.9055,-1.9099,-1.9099,-1.9099,-1.9106,-1.9106,-1.9106,-1.907,-1.9069,-1.9068,-1.9066,-1.9072,-1.9074,-1.9075,0,0,0,0,0,0,0,0,0,0,0,0,0,-1.9068,-1.9055,-1.9099,-1.9082,-1.9081,-1.9106,-1.9106,-1.9106,-1.907,-1.9069,-1.9067,-1.9066,-1.9072,-1.9073,-1.9075,-1.9116,0,0,-1.908,-1.9081,0,0,0,0,0,0,0,0,-1.9068,-1.907,-1.9084,-1.9083,-1.9082,-1.9085,-1.9092,-1.9109,-1.9071,-1.9074,-1.9067,-1.9065,-1.9078,-1.9079,-1.9084,-1.9116,-1.9117,-1.908,-1.9081,-1.9082,-1.9083,0,0,0,0,0,0,0,-1.9067,-1.9069,-1.9101,-1.9085,-1.9083,-1.9074,-1.9074,-1.9095,-1.9085,-1.9074,-1.9071,-1.9073,-1.9077,-1.9082,-1.9084,-1.9117,-1.908,-1.9082,-1.9083,-1.9083,-1.9185,-1.9186,0,0,0,0,0,0,-1.9068,-1.9069,-1.9101,-1.9102,-1.9071,-1.9076,-1.9076,-1.9086,-1.9084,-1.9083,-1.9074,-1.9071,-1.908,-1.9082,-1.9084,-1.9133,-1.9082,-1.9084,-1.9085,-1.9183,-1.9185,-1.9187,0,0,0,0,0,0,-1.9067,-1.9071,-1.9101,-1.9085,-1.9088,-1.9078,-1.9089,-1.9087,-1.9092,-1.9084,-1.9082,-1.9081,-1.9079,-1.9081,-1.9109,-1.9133,-1.9084,-1.9086,-1.9181,-1.9184,-1.9186,-1.9231,0,0,0,0,0,0,-1.9066,-1.9071,-1.9087,-1.9085,-1.9089,-1.9127,-1.9091,-1.9088,-1.9095,-1.9091,-1.9091,-1.9089,-1.9078,-1.9106,-1.911,-1.9134,-1.9087,-1.9179,-1.9182,-1.9185,-1.9228,-1.9235,-1.9241,0,0,0,0,0,-1.9065,-1.9099,-1.9088,-1.9092,-1.9109,-1.9128,-1.913,-1.9117,-1.9097,-1.9113,-1.9108,-1.9089,-1.9129,-1.911,-1.9114,-1.9138,-1.9177,-1.9181,-1.9185,-1.9225,-1.9234,-1.9241,0,0,0,0,0,0,-1.9104,-1.9099,-1.9086,-1.9121,-1.9126,-1.9122,-1.9142,-1.9126,-1.9136,-1.9132,-1.9114,-1.9114,-1.9145,-1.9144,-1.9122,-1.9178,-1.915,-1.9154,-1.9178,-1.9187,-1.9194,-1.9194,-1.9089,0,0,0,0,0,-1.9116,-1.9133,-1.9127,-1.9159,-1.9162,-1.9151,-1.9159,-1.9149,-1.9152,-1.9153,-1.915,-1.9154,-1.9168,-1.9177,-1.9188,-1.9226,-1.9227,-1.9245,-1.9252,-1.9258,-1.9263,-1.9284,-1.9293,-1.9199,-1.9199,-1.9199,0,0,-1.9143,-1.9142,-1.9154,-1.9167,-1.9169,-1.9186,-1.9153,-1.9173,-1.9186,-1.9156,-1.9183,-1.918,-1.9183,-1.9217,-1.9231,-1.9217,-1.9288,-1.9263,-1.9267,-1.9269,-1.9289,-1.9298,-1.9306,-1.9202,-1.9201,-1.9201,0,0,-1.9201,-1.9201,-1.9228,-1.9231,-1.9234,-1.9227,-1.9234,-1.9232,-1.923,-1.9256,-1.9235,-1.9249,-1.9272,-1.9276,-1.928,-1.9339,-1.9323,-1.9343,-1.938,-1.9401,-1.9408,-1.9415,-1.9437,-1.9445,-1.9348,-1.9348,-1.9348,0,-1.9233,-1.9259,-1.9244,-1.9266,-1.9272,-1.9246,-1.9274,-1.9277,-1.9284,-1.9289,-1.9272,-1.9301,-1.9301,-1.9335,-1.935,-1.9354,-1.9361,-1.9344,-1.9408,-1.9415,-1.9421,-1.9442,-1.945,-1.935,-1.935,-1.935,-1.935,0,-1.93,-1.9318,-1.934,-1.9348,-1.9357,-1.9381,-1.9369,-1.9379,-1.9368,-1.9362,-1.9389,-1.9388,-1.94,-1.9407,-1.9395,-1.944,-1.9431,-1.9411,-1.9383,-1.9432,-1.9452,-1.946,-1.9354,-1.9353,-1.9352,-1.9352,0,0,-1.9384,-1.9383,-1.9392,-1.9396,-1.9397,-1.9411,-1.9434,-1.9446,-1.9456,-1.9461,-1.948,-1.95,-1.9483,-1.9488,-1.9476,-1.9494,-1.9543,-1.9473,-1.9473,-1.9487,-1.9593,-1.961,-1.9619,-1.9531,-1.9532,-1.9533,-1.9594,0,-1.9442,-1.9483,-1.9469,-1.951,-1.9527,-1.9502,-1.9522,-1.9526,-1.9521,-1.9534,-1.9528,-1.9544,-1.9518,-1.9522,-1.9538,-1.9533,-1.9564,-1.9528,-1.955,-1.9551,-1.9552,-1.9629,-1.9646,-1.9703,-1.9601,-1.9602,-1.9603,0,-1.9516,-1.9525,-1.9568,-1.9568,-1.9574,-1.9593,-1.9603,-1.9616,-1.9619,-1.9614,-1.962,-1.9604,-1.9627,-1.9596,-1.9627,-1.9603,-1.9611,-1.961,-1.9611,-1.9615,-1.9582,-1.9637,-1.9721,-1.9731,-1.9615,-1.9614,-1.9613,0,-1.9576,-1.9598,-1.9627,-1.9631,-1.963,-1.9644,-1.9644,-1.9646,-1.9654,-1.9662,-1.9667,-1.9678,-1.9684,-1.9692,-1.968,-1.9659,-1.9713,-1.9681,-1.9711,-1.9711,-1.9725,-1.9725,-1.9814,-1.9726,-1.9726,-1.9726,-1.9726,0,-1.9643,-1.9671,-1.9654,-1.9673,-1.9703,-1.9686,-1.9717,-1.9714,-1.9715,-1.9732,-1.971,-1.9726,-1.9708,-1.9723,-1.9713,-1.9741,-1.9743,-1.974,-1.9738,-1.9744,-1.9744,-1.975,-1.9747,-1.9728,-1.9728,-1.9727,-1.9727,0,-1.9716,-1.9706,-1.9736,-1.9733,-1.9733,-1.9756,-1.9753,-1.9769,-1.9762,-1.9784,-1.9788,-1.9778,-1.9794,-1.9782,-1.9797,-1.979,-1.9828,-1.9819,-1.9828,-1.9826,-1.9857,-1.9855,-1.9955,-1.9968,-1.9869,-1.987,-1.9871,0,-1.9761,-1.9782,-1.9782,-1.9792,-1.9794,-1.981,-1.9818,-1.9802,-1.9812,-1.9817,-1.9833,-1.9847,-1.9858,-1.9884,-1.9878,-1.989,-1.9882,-1.9916,-1.9884,-1.9889,-1.9885,-1.9885,-1.9887,-1.9923,-1.9924,-1.9925,-1.9926,0,-1.9843,-1.9837,-1.985,-1.9862,-1.9873,-1.9881,-1.9887,-1.9896,-1.988,-1.9892,-1.9908,-1.9917,-1.9933,-1.9947,-1.9957,-1.9957,-1.994,-1.9936,-1.9944,-1.9951,-1.9957,-1.9956,-1.9848,-1.9934,-1.9934,-1.9933,-1.9933,-1.9932,-1.9905,-1.9923,-1.9925,-1.9941,-1.9944,-1.9951,-1.9966,-1.9962,-1.9975,-1.9988,-1.9977,-1.9997,-1.9999,-2.001,-2.0012,-2.0027,-2.0013,-2.0024,-2.0027,-2.0031,-2.0036,-1.9952,-2.0028,-2.0028,-2.0028,-2.0028,-2.0028,0,-1.9987,-1.9988,-2.0002,-2.0012,-2.0024,-2.0006,-2.0012,-2.0024,-2.0042,-2.0045,-2.0056,-2.0076,-2.009,-2.0084,-2.0096,-2.011,-2.0102,-2.0114,-2.0114,-2.0115,-2.0047,-2.004,-2.012,-2.012,-2.012,-2.012,-2.012,-2.012,-2.0032,-2.0062,-2.0056,-2.0087,-2.0087,-2.0107,-2.0112,-2.0118,-2.0121,-2.0144,-2.0155,-2.0151,-2.0152,-2.0164,-2.0176,-2.0174,-2.018,-2.0195,-2.0191,-2.0128,-2.0119,-2.011,-2.0104,-2.0196,-2.0196,-2.0257,-2.0258,-2.0258]}]]